South St. Paul, MN

1:32 PM CDT on May 24, 2018 (GMT -0500)
South Saint Paul Municipal-Fleming

Weather History for KSGS - August, 2012

Change the Weather History Date:

Saturday, August 4, 2012

  Actual Average (KSTP) Record (KSTP)
Temperature  
Mean Temperature 72 °F -  
Max Temperature 78 °F 80 °F 91 °F (2001)
Min Temperature 65 °F 60 °F 54 °F (2017)
Cooling Degree Days 6    
Growing Degree Days 22 (Base 50)    
Moisture  
Dew Point 60 °F    
Average Humidity 74    
Maximum Humidity 98    
Minimum Humidity 44    
Precipitation  
Precipitation 0.21 in - - ()
Sea Level Pressure  
Sea Level Pressure 29.86 in    
Wind  
Wind Speed 6 mph (WSW)    
Max Wind Speed 15 mph    
Max Gust Speed 21 mph    
Visibility 10 miles    
Events Rain , Thunderstorm    
Averages and records for this station are not official NWS values.
T = Trace of Precipitation, MM = Missing Value Source: NWS Daily Summary

Daily Weather History Graph

Daily Weather History Graph

Search for Another Location

Airport or City:

Astronomy

Aug. 04, 2012 Rise Set
Actual Time 6:01 AM CDT 8:33 PM CDT
Civil Twilight 5:28 AM CDT 9:06 PM CDT
Nautical Twilight 4:47 AM CDT 9:48 PM CDT
Astronomical Twilight 3:59 AM CDT 10:35 PM CDT
Moon 9:31 PM CDT (8/4) 9:00 AM CDT (8/4)
Length of Visible Light 15h 38m
Length of Day
14h 31m
Waning Gibbous, 92% of the Moon is Illuminated
Aug 4
Waning Gibbous
Aug 9
Last Quarter
Aug 17
New
Aug 24
First Quarter
Aug 31
Full

Hourly Weather History & Observations

Time (CDT) Temp. Dew Point Humidity Pressure Visibility Wind Dir Wind Speed Gust Speed Precip Events Conditions
12:13 AM 65.3 °F 64.4 °F 97% 29.88 in 7.0 mi North 5.8 mph 17.3 mph 0.02 in Rain Rain
12:32 AM 65.5 °F 64.4 °F 96% 29.87 in 4.0 mi Calm Calm - 0.10 in Rain Rain
12:53 AM 65.8 °F 64.9 °F 97% 29.88 in 7.0 mi SSE 4.6 mph - 0.14 in Rain , Thunderstorm Light Thunderstorms and Rain
1:13 AM 65.7 °F 64.8 °F 97% 29.83 in 5.0 mi SE 12.7 mph 17.3 mph 0.04 in Rain Rain
1:32 AM 65.3 °F 64.4 °F 97% 29.79 in 10.0 mi SE 6.9 mph - 0.06 in   Scattered Clouds
1:53 AM 65.5 °F 64.6 °F 97% 29.80 in 10.0 mi SE 5.8 mph - 0.06 in   Clear
2:13 AM 65.3 °F 64.4 °F 97% 29.80 in 10.0 mi SE 4.6 mph - N/A   Clear
2:32 AM 65.3 °F 64.4 °F 97% 29.80 in 10.0 mi Calm Calm - N/A   Scattered Clouds
2:53 AM 65.1 °F 64.2 °F 97% 29.81 in 10.0 mi Calm Calm - N/A   Scattered Clouds
3:33 AM 65.3 °F 64.4 °F 97% 29.81 in 10.0 mi Calm Calm - N/A   Clear
3:53 AM 65.3 °F 64.4 °F 97% 29.82 in 10.0 mi Calm Calm - N/A   Clear
4:13 AM 65.7 °F 64.8 °F 97% 29.81 in 10.0 mi Calm Calm - N/A   Scattered Clouds
4:33 AM 65.3 °F 64.4 °F 97% 29.80 in 10.0 mi Calm Calm - N/A   Scattered Clouds
4:52 AM 65.5 °F 64.6 °F 97% 29.79 in 10.0 mi Calm Calm - N/A   Clear
5:13 AM 65.5 °F 64.6 °F 97% 29.82 in 10.0 mi West 4.6 mph - N/A   Clear
5:33 AM 65.3 °F 64.4 °F 97% 29.84 in 10.0 mi Calm Calm - N/A   Clear
5:52 AM 65.3 °F 64.4 °F 97% 29.85 in 10.0 mi Calm Calm - N/A   Clear
6:13 AM 65.3 °F 64.4 °F 97% 29.82 in 10.0 mi Calm Calm - N/A   Clear
6:33 AM 65.3 °F 64.4 °F 97% 29.82 in 10.0 mi SSE 5.8 mph - N/A   Clear
6:53 AM 65.5 °F 64.6 °F 97% 29.81 in 10.0 mi SE 4.6 mph - N/A   Clear
7:13 AM 65.8 °F 64.9 °F 97% 29.81 in 7.0 mi South 5.8 mph - N/A   Clear
7:32 AM 66.2 °F 65.3 °F 97% 29.85 in 10.0 mi SSW 8.1 mph - N/A   Clear
7:52 AM 66.2 °F 65.3 °F 97% 29.86 in 10.0 mi SSW 10.4 mph - 0.01 in   Scattered Clouds
8:13 AM 66.4 °F 65.5 °F 97% 29.84 in 10.0 mi SW 8.1 mph - N/A   Mostly Cloudy
8:32 AM 66.4 °F 65.5 °F 97% 29.82 in 10.0 mi SW 6.9 mph - N/A   Scattered Clouds
9:13 AM 66.7 °F 65.8 °F 97% 29.85 in 10.0 mi SSW 10.4 mph - N/A   Clear
9:33 AM 66.7 °F 66.2 °F 98% 29.86 in 10.0 mi SW 9.2 mph - N/A   Scattered Clouds
9:53 AM 67.6 °F 66.4 °F 96% 29.88 in 10.0 mi WSW 10.4 mph - N/A Rain Light Rain
10:12 AM 68.4 °F 65.7 °F 91% 29.88 in 10.0 mi WSW 9.2 mph - N/A Rain Light Rain
10:33 AM 68.4 °F 65.3 °F 90% 29.89 in 10.0 mi West 8.1 mph - N/A   Overcast
10:53 AM 68.9 °F 65.1 °F 88% 29.88 in 10.0 mi West 8.1 mph - N/A   Overcast
11:13 AM 70.2 °F 64.9 °F 83% 29.86 in 10.0 mi West 10.4 mph - N/A   Mostly Cloudy
11:33 AM 69.6 °F 63.5 °F 81% 29.86 in 10.0 mi West 8.1 mph - N/A   Scattered Clouds
11:53 AM 70.2 °F 61.2 °F 73% 29.87 in 10.0 mi West 10.4 mph - N/A   Clear
12:13 PM 69.3 °F 59.2 °F 70% 29.89 in 10.0 mi West 9.2 mph - N/A   Clear
12:32 PM 69.6 °F 59.5 °F 70% 29.87 in 10.0 mi West 5.8 mph - N/A   Clear
1:13 PM 71.1 °F 57.9 °F 63% 29.87 in 10.0 mi West 9.2 mph - N/A   Clear
1:32 PM 72.5 °F 59.2 °F 63% 29.86 in 10.0 mi West 3.5 mph - N/A   Clear
1:53 PM 73.8 °F 59.5 °F 61% 29.86 in 10.0 mi West 6.9 mph - N/A   Clear
2:33 PM 75.2 °F 58.1 °F 55% 29.86 in 10.0 mi West 5.8 mph 16.1 mph N/A   Clear
2:53 PM 76.3 °F 58.8 °F 55% 29.86 in 10.0 mi West 11.5 mph 16.1 mph N/A   Scattered Clouds
3:12 PM 75.6 °F 57.2 °F 53% 29.87 in 10.0 mi West 6.9 mph - N/A   Scattered Clouds
3:33 PM 76.1 °F 56.3 °F 50% 29.87 in 10.0 mi West 6.9 mph - N/A   Scattered Clouds
3:53 PM 76.6 °F 56.5 °F 50% 29.87 in 10.0 mi WSW 9.2 mph 16.1 mph N/A   Scattered Clouds
4:12 PM 75.4 °F 56.7 °F 52% 29.87 in 10.0 mi West 5.8 mph - N/A   Scattered Clouds
4:33 PM 77.9 °F 55.8 °F 46% 29.87 in 10.0 mi WNW 12.7 mph - N/A   Scattered Clouds
4:52 PM 77.9 °F 56.3 °F 47% 29.87 in 10.0 mi West 11.5 mph - N/A   Scattered Clouds
5:13 PM 78.1 °F 54.7 °F 44% 29.88 in 10.0 mi West 15.0 mph 19.6 mph N/A   Scattered Clouds
5:33 PM 77.9 °F 55.0 °F 45% 29.88 in 10.0 mi WSW 11.5 mph 18.4 mph N/A   Scattered Clouds
5:53 PM 77.0 °F 54.7 °F 46% 29.88 in 10.0 mi West 9.2 mph - N/A   Scattered Clouds
6:13 PM 77.5 °F 54.7 °F 45% 29.88 in 10.0 mi West 11.5 mph 16.1 mph N/A   Clear
6:32 PM 77.4 °F 54.5 °F 45% 29.88 in 10.0 mi West 9.2 mph 16.1 mph N/A   Clear
6:53 PM 77.0 °F 55.4 °F 47% 29.88 in 10.0 mi WSW 9.2 mph - N/A   Clear
7:13 PM 76.1 °F 55.4 °F 49% 29.87 in 10.0 mi West 9.2 mph - N/A   Clear
7:32 PM 75.9 °F 55.9 °F 50% 29.88 in 10.0 mi WSW 8.1 mph - N/A   Clear
7:53 PM 75.4 °F 55.9 °F 51% 29.88 in 10.0 mi West 9.2 mph - N/A   Clear
8:12 PM 75.2 °F 56.3 °F 52% 29.88 in 10.0 mi West 9.2 mph - N/A   Clear
8:33 PM 74.7 °F 56.3 °F 53% 29.89 in 10.0 mi West 10.4 mph - N/A   Scattered Clouds
8:52 PM 74.3 °F 54.7 °F 50% 29.90 in 10.0 mi WNW 10.4 mph 17.3 mph N/A   Clear
9:12 PM 73.4 °F 54.3 °F 51% 29.90 in 10.0 mi West 9.2 mph - N/A   Clear
9:33 PM 72.7 °F 54.3 °F 52% 29.90 in 10.0 mi WNW 8.1 mph - N/A   Clear
9:53 PM 72.0 °F 54.3 °F 54% 29.91 in 10.0 mi West 6.9 mph - N/A   Clear
10:13 PM 71.6 °F 54.3 °F 54% 29.91 in 10.0 mi West 8.1 mph - N/A   Clear
10:33 PM 71.6 °F 54.7 °F 55% 29.91 in 10.0 mi WNW 5.8 mph - N/A   Clear
10:53 PM 71.1 °F 55.2 °F 57% 29.91 in 10.0 mi WNW 9.2 mph 16.1 mph N/A   Clear
11:13 PM 70.9 °F 55.4 °F 58% 29.92 in 10.0 mi WNW 10.4 mph - N/A   Clear
11:33 PM 70.7 °F 55.8 °F 59% 29.92 in 10.0 mi WNW 11.5 mph - N/A   Clear
11:52 PM 70.7 °F 56.3 °F 60% 29.93 in 10.0 mi NW 12.7 mph 20.7 mph N/A   Scattered Clouds